Joplin, MO

1:52 PM CDT on July 20, 2017 (GMT -0500)
Joplin Regional

Weather History for KJLN - May, 2012

Change the Weather History Date:

Friday, May 4, 2012

  Actual Average Record
Temperature  
Mean Temperature 77 °F 64 °F  
Max Temperature 84 °F 75 °F 94 °F (2014)
Min Temperature 70 °F 53 °F 33 °F (1954)
Degree Days  
Heating Degree Days 0 4  
Month to date heating degree days 0 16  
Since 1 July heating degree days 3278 4019  
Cooling Degree Days 12 2  
Month to date cooling degree days 40 8  
Year to date cooling degree days 176 62  
Growing Degree Days 26 (Base 50)    
Moisture  
Dew Point 69 °F    
Average Humidity 81    
Maximum Humidity 93    
Minimum Humidity 69    
Precipitation  
Precipitation T in 0.19 in 5.21 in (1999)
Month to date precipitation 1.08 0.77  
Year to date precipitation 16.37 13.01  
Snow  
Snow 0.00 in - - ()
Month to date snowfall 0.0  
Snow Depth 0.00 in    
Sea Level Pressure  
Sea Level Pressure 29.85 in    
Wind  
Wind Speed 12 mph (South)    
Max Wind Speed 22 mph    
Max Gust Speed 28 mph    
Visibility 10 miles    
Events Rain    
T = Trace of Precipitation, MM = Missing Value Source: NWS Daily Summary

Daily Weather History Graph

Daily Weather History Graph

Search for Another Location

Airport or City:

Trip Planner

Search our weather history database for the weather conditions in past years. The results will help you decide how hot, cold, wet, or windy it might be!

Date:

Astronomy

May. 04, 2012 Rise Set
Actual Time 6:19 AM CDT 8:10 PM CDT
Civil Twilight 5:51 AM CDT 8:38 PM CDT
Nautical Twilight 5:17 AM CDT 9:13 PM CDT
Astronomical Twilight 4:40 AM CDT 9:49 PM CDT
Moon 6:50 PM CDT (5/4) 4:59 AM CDT (5/4)
Length of Visible Light 14h 47m
Length of Day
13h 50m
Waxing Gibbous, 97% of the Moon is Illuminated
May 4
Waxing Gibbous
May 5
Full
May 12
Last Quarter
May 20
New
May 28
First Quarter

Hourly Weather History & Observations

Time (CDT) Temp. Heat Index Dew Point Humidity Pressure Visibility Wind Dir Wind Speed Gust Speed Precip Events Conditions
12:53 AM 72.0 °F - 68.0 °F 87% 29.87 in 10.0 mi South 9.2 mph - N/A   Clear
1:53 AM 72.0 °F - 69.1 °F 91% 29.86 in 9.0 mi South 12.7 mph - N/A   Clear
2:53 AM 72.0 °F - 69.1 °F 91% 29.85 in 9.0 mi South 15.0 mph 23.0 mph N/A   Clear
3:53 AM 72.0 °F - 68.0 °F 87% 29.84 in 9.0 mi South 18.4 mph - N/A   Clear
4:53 AM 72.0 °F - 68.0 °F 87% 29.83 in 10.0 mi South 16.1 mph - N/A   Clear
5:53 AM 71.1 °F - 66.9 °F 87% 29.86 in 10.0 mi SSW 12.7 mph - N/A   Clear
6:53 AM 70.0 °F - 66.9 °F 90% 29.89 in 8.0 mi Variable 4.6 mph - N/A   Clear
7:53 AM 73.0 °F - 68.0 °F 84% 29.88 in 9.0 mi South 8.1 mph - N/A   Clear
8:53 AM 75.0 °F - 68.0 °F 79% 29.88 in 10.0 mi SSW 9.2 mph - N/A   Clear
9:53 AM 77.0 °F - 68.0 °F 74% 29.88 in 10.0 mi SSW 15.0 mph 20.7 mph N/A   Clear
10:53 AM 79.0 °F - 70.0 °F 74% 29.90 in 10.0 mi SSW 11.5 mph - N/A   Clear
11:53 AM 81.0 °F 84.9 °F 71.1 °F 72% 29.89 in 10.0 mi SSW 16.1 mph - N/A   Partly Cloudy
12:53 PM 82.0 °F 86.3 °F 71.1 °F 69% 29.86 in 10.0 mi South 13.8 mph - N/A   Clear
1:53 PM 80.1 °F 83.6 °F 71.1 °F 74% 29.88 in 10.0 mi South 17.3 mph - N/A   Partly Cloudy
2:53 PM 79.0 °F - 71.1 °F 77% 29.86 in 10.0 mi South 8.1 mph - 0.00 in Rain Light Rain
3:53 PM 81.0 °F 84.9 °F 71.1 °F 72% 29.84 in 10.0 mi South 13.8 mph - 0.00 in   Clear
4:53 PM 81.0 °F 84.4 °F 70.0 °F 69% 29.81 in 10.0 mi South 12.7 mph - N/A   Partly Cloudy
5:53 PM 80.1 °F 83.2 °F 70.0 °F 71% 29.81 in 10.0 mi South 16.1 mph - N/A   Partly Cloudy
6:53 PM 81.0 °F 84.1 °F 69.1 °F 67% 29.76 in 10.0 mi SSE 17.3 mph 25.3 mph N/A   Clear
7:53 PM 78.1 °F - 69.1 °F 74% 29.81 in 10.0 mi WSW 6.9 mph - N/A   Clear
8:53 PM 73.9 °F - 69.1 °F 85% 29.82 in 10.0 mi South 3.5 mph - N/A   Clear
9:53 PM 72.0 °F - 68.0 °F 87% 29.83 in 10.0 mi South 8.1 mph - N/A   Clear
10:53 PM 73.0 °F - 66.9 °F 81% 29.85 in 10.0 mi South 8.1 mph - N/A   Clear
11:53 PM 72.0 °F - 66.9 °F 84% 29.86 in 10.0 mi South 8.1 mph - N/A   Clear